Angel Fire, NM

10:58 AM MDT on March 30, 2017 (GMT -0600)
Angel Fire

Weather History for KAXX - July, 2013

Change the Weather History Date:

Sunday, July 14, 2013

  Actual Average (KSKX) Record (KSKX)
Temperature  
Mean Temperature 60 °F -  
Max Temperature 73 °F 82 °F 93 °F (2003)
Min Temperature 46 °F 48 °F 46 °F (1997)
Degree Days  
Heating Degree Days 6    
Growing Degree Days 10 (Base 50)    
Moisture  
Dew Point 51 °F    
Average Humidity 77    
Maximum Humidity 97    
Minimum Humidity 40    
Precipitation  
Precipitation 0.06 in - - ()
Sea Level Pressure  
Sea Level Pressure 30.40 in    
Wind  
Wind Speed 2 mph (North)    
Max Wind Speed 13 mph    
Max Gust Speed 17 mph    
Visibility 10 miles    
Events Rain    
Averages and records for this station are not official NWS values.
T = Trace of Precipitation, MM = Missing Value Source: NWS Daily Summary

Daily Weather History Graph

Daily Weather History Graph

Search for Another Location

Airport or City:

Trip Planner

Search our weather history database for the weather conditions in past years. The results will help you decide how hot, cold, wet, or windy it might be!

Date:

Astronomy

Jul. 14, 2013 Rise Set
Actual Time 5:54 AM MDT 8:19 PM MDT
Civil Twilight 5:24 AM MDT 8:49 PM MDT
Nautical Twilight 4:47 AM MDT 9:25 PM MDT
Astronomical Twilight 4:07 AM MDT 10:05 PM MDT
Moon 12:01 PM MDT (7/14) 11:46 PM MDT (7/14)
Length of Visible Light 15h 24m
Length of Day
14h 24m
Waxing Crescent, 35% of the Moon is Illuminated
Jul 14
Waxing Crescent
Jul 15
First Quarter
Jul 22
Full
Jul 29
Last Quarter
Aug 6
New

Hourly Weather History & Observations

Time (MDT) Temp. Dew Point Humidity Pressure Visibility Wind Dir Wind Speed Gust Speed Precip Events Conditions
12:15 AM 60.1 °F 51.1 °F 72% 30.44 in 10.0 mi Calm Calm - N/A   Mostly Cloudy
12:35 AM 59.7 °F 51.1 °F 73% 30.44 in 10.0 mi Calm Calm - N/A   Overcast
12:55 AM 58.3 °F 51.8 °F 79% 30.44 in 10.0 mi Calm Calm - N/A   Overcast
1:15 AM 57.9 °F 51.8 °F 80% 30.43 in 10.0 mi Calm Calm - N/A   Overcast
1:35 AM 58.1 °F 51.8 °F 80% 30.43 in 10.0 mi Calm Calm - N/A   Overcast
1:55 AM 57.4 °F 52.0 °F 82% 30.42 in 10.0 mi NE 3.5 mph - N/A   Overcast
2:15 AM 55.9 °F 51.3 °F 84% 30.42 in 10.0 mi Calm Calm - N/A   Mostly Cloudy
2:35 AM 54.0 °F 50.7 °F 89% 30.42 in 10.0 mi Calm Calm - N/A   Scattered Clouds
2:55 AM 53.8 °F 50.2 °F 88% 30.42 in 10.0 mi Calm Calm - N/A   Clear
3:15 AM 51.4 °F 48.7 °F 90% 30.42 in 10.0 mi Calm Calm - N/A   Clear
3:35 AM 51.1 °F 48.4 °F 90% 30.42 in 10.0 mi Calm Calm - N/A   Clear
3:55 AM 50.9 °F 48.4 °F 91% 30.42 in 10.0 mi Calm Calm - N/A   Clear
4:15 AM 48.6 °F 47.1 °F 95% 30.42 in 10.0 mi Calm Calm - N/A   Clear
4:35 AM 49.5 °F 47.7 °F 94% 30.42 in 10.0 mi Calm Calm - N/A   Clear
4:55 AM 48.4 °F 46.4 °F 93% 30.42 in 10.0 mi Calm Calm - N/A   Clear
5:15 AM 48.0 °F 46.0 °F 93% 30.43 in 10.0 mi Calm Calm - N/A   Clear
5:35 AM 47.5 °F 45.9 °F 94% 30.42 in 10.0 mi Calm Calm - N/A   Clear
5:55 AM 46.4 °F 44.6 °F 93% 30.42 in 10.0 mi Calm Calm - N/A   Clear
6:15 AM 47.3 °F 45.7 °F 94% 30.42 in 10.0 mi Calm Calm - N/A   Clear
6:35 AM 48.0 °F 47.1 °F 97% 30.43 in 10.0 mi Calm Calm - N/A   Clear
6:55 AM 49.5 °F 47.5 °F 93% 30.43 in 10.0 mi Calm Calm - N/A   Clear
7:15 AM 51.3 °F 49.1 °F 92% 30.42 in 10.0 mi Calm Calm - N/A   Clear
7:35 AM 52.7 °F 49.5 °F 89% 30.43 in 10.0 mi Calm Calm - N/A   Clear
7:55 AM 53.6 °F 50.0 °F 88% 30.43 in 10.0 mi Calm Calm - N/A   Clear
8:15 AM 55.6 °F 50.2 °F 82% 30.43 in 10.0 mi Calm Calm - N/A   Clear
8:35 AM 58.8 °F 51.1 °F 75% 30.42 in 10.0 mi Calm Calm - N/A   Clear
8:55 AM 59.2 °F 51.6 °F 76% 30.42 in 10.0 mi Calm Calm - N/A   Scattered Clouds
9:15 AM 60.1 °F 51.8 °F 74% 30.42 in 10.0 mi Calm Calm - N/A   Overcast
9:35 AM 62.6 °F 50.5 °F 65% 30.42 in 10.0 mi Calm Calm - N/A   Overcast
9:55 AM 64.2 °F 50.0 °F 60% 30.41 in 7.0 mi Calm Calm - N/A   Overcast
10:15 AM 66.7 °F 50.5 °F 56% 30.41 in 10.0 mi Calm Calm - N/A   Scattered Clouds
10:35 AM 70.0 °F 49.6 °F 48% 30.41 in 10.0 mi Calm Calm - N/A   Clear
10:55 AM 72.5 °F 46.6 °F 40% 30.40 in 10.0 mi Calm Calm - N/A   Clear
11:15 AM 72.9 °F 46.9 °F 40% 30.39 in 10.0 mi Calm Calm - N/A   Clear
11:35 AM 73.8 °F 47.8 °F 40% 30.39 in 10.0 mi Calm Calm - N/A   Clear
11:55 AM 73.8 °F 51.1 °F 45% 30.37 in 10.0 mi West 9.2 mph - N/A   Scattered Clouds
12:15 PM 68.9 °F 51.6 °F 54% 30.37 in 10.0 mi West 12.7 mph - N/A   Mostly Cloudy
12:35 PM 64.0 °F 53.4 °F 68% 30.37 in 10.0 mi WNW 11.5 mph 17.3 mph N/A Rain Light Rain
12:55 PM 62.6 °F 53.2 °F 71% 30.37 in 10.0 mi WNW 9.2 mph - N/A   Scattered Clouds
1:15 PM 63.3 °F 53.6 °F 71% 30.37 in 10.0 mi Calm Calm - N/A   Clear
1:35 PM 65.8 °F 53.4 °F 64% 30.37 in 10.0 mi Calm Calm - N/A   Scattered Clouds
1:55 PM 68.7 °F 53.6 °F 58% 30.37 in 10.0 mi Calm Calm - N/A   Scattered Clouds
2:15 PM 69.6 °F 49.5 °F 49% 30.38 in 10.0 mi East 4.6 mph - N/A   Mostly Cloudy
2:35 PM 65.5 °F 57.6 °F 76% 30.37 in 10.0 mi West 5.8 mph - N/A   Overcast
2:55 PM 62.8 °F 55.6 °F 77% 30.39 in 10.0 mi West 10.4 mph 16.1 mph N/A Rain Light Rain
3:15 PM 60.1 °F 55.6 °F 85% 30.38 in 10.0 mi Calm Calm - N/A Rain Light Rain
3:35 PM 61.2 °F 56.1 °F 83% 30.38 in 10.0 mi SE 3.5 mph - 0.01 in Rain Light Rain
3:55 PM 61.7 °F 56.1 °F 82% 30.39 in 10.0 mi North 5.8 mph - 0.01 in   Mostly Cloudy
4:15 PM 60.1 °F 53.8 °F 80% 30.39 in 10.0 mi NE 12.7 mph - N/A Rain Light Rain
4:35 PM 59.2 °F 54.3 °F 84% 30.38 in 10.0 mi NNW 3.5 mph - N/A Rain Light Rain
4:55 PM 59.9 °F 53.8 °F 80% 30.37 in 10.0 mi NNW 3.5 mph - N/A   Overcast
5:15 PM 60.8 °F 54.0 °F 78% 30.38 in 10.0 mi Calm Calm - N/A Rain Light Rain
5:35 PM 61.0 °F 54.0 °F 78% 30.38 in 10.0 mi Calm Calm - N/A   Overcast
5:55 PM 61.5 °F 51.8 °F 70% 30.38 in 10.0 mi NE 9.2 mph - N/A   Overcast
6:15 PM 61.7 °F 52.9 °F 73% 30.37 in 10.0 mi NNE 6.9 mph - N/A   Mostly Cloudy
6:35 PM 61.9 °F 50.5 °F 66% 30.38 in 10.0 mi NE 11.5 mph - N/A   Mostly Cloudy
6:55 PM 61.7 °F 50.4 °F 66% 30.38 in 10.0 mi NNE 10.4 mph - N/A   Overcast
7:15 PM 61.2 °F 49.8 °F 66% 30.38 in 10.0 mi NE 12.7 mph - N/A   Mostly Cloudy
7:35 PM 60.8 °F 50.4 °F 68% 30.39 in 10.0 mi NNE 8.1 mph - N/A   Overcast
7:55 PM 59.7 °F 51.8 °F 75% 30.39 in 10.0 mi NNW 3.5 mph - N/A   Overcast
8:15 PM 59.0 °F 51.3 °F 75% 30.38 in 10.0 mi Calm Calm - N/A   Scattered Clouds
8:35 PM 58.1 °F 51.8 °F 80% 30.38 in 10.0 mi Calm Calm - N/A   Scattered Clouds
8:55 PM 55.4 °F 52.5 °F 90% 30.38 in 10.0 mi Calm Calm - N/A   Clear
9:15 PM 54.3 °F 52.0 °F 92% 30.38 in 10.0 mi Calm Calm - N/A   Clear
9:35 PM 57.4 °F 49.1 °F 74% 30.39 in 10.0 mi North 6.9 mph - N/A   Clear
9:55 PM 57.6 °F 50.0 °F 76% 30.40 in 10.0 mi NNE 6.9 mph - N/A   Light Drizzle
10:15 PM 55.8 °F 50.9 °F 84% 30.42 in 10.0 mi North 9.2 mph - N/A Rain Rain
10:35 PM 54.5 °F 51.4 °F 89% 30.44 in 10.0 mi North 5.8 mph - 0.02 in Rain Light Rain
10:55 PM 54.1 °F 51.4 °F 91% 30.44 in 10.0 mi Calm Calm - 0.02 in Rain Light Rain
11:15 PM 54.1 °F 51.8 °F 92% 30.44 in 7.0 mi Calm Calm - 0.02 in Rain Light Rain
11:35 PM 53.6 °F 51.6 °F 93% 30.42 in 10.0 mi Calm Calm - 0.03 in Rain Light Rain
11:55 PM 53.8 °F 52.2 °F 94% 30.42 in 10.0 mi Calm Calm - 0.03 in   Light Drizzle